Wind_Gust
18 18 19 18 17 17 17 17 15 16 14 15 15 15 17 14 14 13 12 11 11 11 11 10 10 10 9 8 8 7 11 11 10 10 10 10 10 11 11 11 9 10
17 17 16 16 16 15 15 15 16 16 15 14 14 15 14 14 13 13 13 12 12 12 12 12 11 11 10 11 9 9 11 10 10 10 9 9 10 10 9 9 10 9
16 15 16 16 17 15 15 13 14 15 15 14 13 14 14 13 14 13 14 13 13 13 12 12 11 10 10 10 10 10 12 11 11 10 10 11 8 8 9 9 9 10
18 17 16 16 16 17 16 16 14 15 14 15 14 14 15 13 14 15 14 13 14 13 13 13 12 12 12 12 10 12 12 12 13 11 11 10 8 9 8 9 10 11
18 17 15 15 16 18 16 15 16 16 15 15 14 15 16 16 16 17 16 14 13 13 13 13 12 12 12 12 12 14 13 14 11 10 11 10 9 8 8 10 11 12
18 18 18 17 16 18 17 15 12 14 15 14 15 15 16 17 18 17 16 15 14 14 13 12 13 14 14 14 13 13 12 13 12 10 13 12 12 10 12 12 12 13
19 19 18 18 17 18 18 18 16 15 15 13 14 14 16 18 18 18 18 16 16 15 15 14 14 14 14 14 14 12 11 11 12 12 14 13 12 11 11 12 13 14
19 18 19 18 18 18 18 20 18 17 15 14 14 14 17 19 19 17 17 17 16 16 15 15 15 16 15 14 14 13 11 11 12 13 12 13 10 13 12 12 11 13
20 18 18 18 19 18 19 20 19 17 17 17 16 16 16 17 17 17 17 17 16 15 16 15 16 16 14 14 13 13 14 12 12 13 12 12 12 12 14 13 12 13
20 20 19 18 19 19 19 18 19 18 18 18 17 16 17 15 15 17 17 16 16 16 16 16 16 16 15 15 15 14 15 15 14 12 13 12 11 12 13 12 13 12
19 19 19 19 18 17 18 18 18 18 17 18 16 16 15 14 15 15 16 17 16 17 17 16 16 17 16 15 14 12 13 14 13 13 12 12 11 11 6 10 11 11
16 14 13 14 15 16 17 17 17 17 17 16 16 17 15 15 15 15 15 15 15 15 16 16 16 15 16 16 16 14 13 12 12 12 12 13 12 11 11 10 9 10
21 17 12 11 14 14 14 14 16 16 17 16 16 15 15 14 15 16 16 16 15 14 15 15 15 15 15 14 15 15 14 13 12 11 11 10 10 11 10 10 10 11
15 15 11 13 13 14 13 12 13 14 14 14 15 14 14 14 15 16 15 13 12 12 13 14 14 14 15 15 15 15 13 13 12 10 11 10 9 10 10 10 9 10
13 12 11 11 11 15 10 8 10 12 12 12 13 13 11 12 14 14 15 13 10 8 12 12 12 12 13 13 14 13 12 12 11 11 10 11 11 10 10 10 10 9
17 14 13 13 13 14 14 12 12 12 13 12 10 11 11 11 12 12 13 11 10 9 9 9 10 11 9 9 10 11 12 11 11 11 12 11 12 11 11 11 10 10
19 18 15 14 12 15 15 15 14 12 10 12 10 9 10 10 9 12 12 10 9 9 11 10 9 9 6 5 4 10 11 12 12 12 12 12 12 12 12 12 12 13
16 15 15 13 12 12 11 13 13 12 9 8 8 9 9 8 8 8 9 9 7 8 9 8 9 6 6 5 3 3 7 13 11 12 13 13 13 13 13 13 13 13
19 17 16 17 17 17 13 13 14 15 8 7 9 8 8 8 8 10 10 7 8 9 9 9 9 6 7 6 4 2 3 9 14 12 14 14 14 14 14 13 13 13
16 17 17 14 15 17 17 16 12 13 11 9 11 10 9 8 9 10 8 7 7 7 8 8 11 6 6 6 6 5 3 5 12 12 13 14 14 14 14 14 14 15
17 17 16 16 15 15 13 14 14 14 12 10 10 11 11 10 9 8 8 7 8 8 9 11 12 7 7 6 5 4 4 6 12 13 15 14 14 14 14 15 15 16
17 17 16 15 16 16 16 14 12 13 12 10 10 10 9 9 8 7 8 7 6 6 8 13 12 5 7 7 6 5 5 12 14 15 16 17 17 16 16 16 16 16
16 16 15 15 16 17 17 16 14 15 13 11 14 14 11 13 9 8 8 10 9 9 9 15 15 6 4 4 5 3 7 11 13 16 16 16 15 15 16 16 17 17
19 18 17 17 17 18 17 15 15 15 15 12 14 13 12 10 11 11 10 10 9 10 14 13 16 9 6 7 6 3 8 13 15 16 16 16 16 15 16 16 15 5
18 18 19 19 19 17 16 17 17 17 14 13 14 14 13 12 11 14 14 13 13 14 6 10 15 11 6 5 4 4 10 11 14 17 17 16 16 16 16 17 16 13
16 17 16 16 16 15 15 16 15 16 15 16 17 17 15 14 14 17 16 15 14 15 16 15 15 16 13 7 6 4 7 14 11 16 17 16 16 16 16 15 16 16
Wind_Speed
7 7 8 8 7 7 8 8 7 8 6 6 6 6 7 6 7 6 6 5 4 4 4 4 4 4 3 2 2 1 4 4 4 3 4 2 3 4 3 4 3 3
7 8 7 7 6 6 7 7 8 7 6 6 6 6 6 6 6 6 6 5 4 4 5 5 5 4 4 4 3 3 4 3 3 2 3 4 4 3 2 3 3 2
7 8 8 7 7 8 7 6 7 7 7 6 6 6 6 6 6 6 6 5 5 6 6 5 5 4 4 4 4 4 5 5 5 4 4 4 3 3 3 3 3 4
9 9 8 8 8 9 8 7 7 7 7 6 6 6 6 5 6 7 6 6 5 6 6 6 5 5 5 5 5 5 5 5 5 5 4 3 2 3 2 2 3 4
10 9 8 7 8 9 8 8 8 8 7 7 6 7 7 7 7 8 7 6 6 6 5 5 5 5 5 5 5 6 5 6 5 4 4 4 3 2 2 2 4 4
10 9 9 8 8 9 8 7 6 7 7 7 7 6 7 8 8 8 8 7 6 5 5 5 5 6 6 6 5 5 5 5 4 4 5 5 4 3 3 4 4 5
10 10 10 9 9 10 9 9 8 7 7 6 6 6 7 8 8 8 8 7 7 6 6 5 6 6 6 6 6 5 4 4 5 5 6 5 5 4 4 5 5 6
11 10 10 9 10 10 10 10 9 8 7 6 6 6 8 9 9 8 8 8 7 7 7 7 7 7 7 6 6 6 5 3 5 5 5 5 4 5 5 3 5 6
10 9 10 10 10 9 10 10 9 9 8 8 7 7 7 8 8 8 8 8 7 7 7 7 7 7 6 6 6 6 6 5 5 6 5 5 5 5 6 5 5 6
9 9 10 10 10 9 10 10 9 9 8 8 8 7 7 7 7 8 8 7 7 7 7 7 8 7 7 6 7 6 6 7 6 5 5 5 4 5 5 5 5 5
8 8 8 9 9 9 10 10 9 9 8 8 8 7 7 6 7 7 7 7 7 7 8 7 8 8 7 7 6 5 6 6 6 5 5 5 4 4 3 4 4 4
4 5 3 2 7 7 9 9 8 9 8 7 8 8 7 7 7 6 6 7 7 7 7 7 7 7 7 7 7 6 6 5 5 5 5 5 4 4 4 3 3 4
8 6 4 5 5 3 4 7 7 8 9 8 7 7 7 6 6 7 7 6 7 6 7 7 7 7 7 7 7 7 7 6 5 5 4 4 3 4 3 3 3 3
9 8 6 5 7 5 3 2 5 7 7 7 7 6 6 6 7 7 6 5 4 5 6 6 6 6 6 7 7 6 5 5 5 4 4 4 3 3 3 3 3 3
5 4 5 5 4 4 5 3 4 5 5 5 6 6 4 5 6 6 7 5 3 3 5 5 5 4 5 5 6 5 4 5 4 4 3 4 3 3 3 3 2 2
8 8 7 7 7 6 7 6 5 4 5 5 4 4 4 4 5 5 5 4 4 2 3 3 3 3 5 8 9 1 5 3 4 4 4 4 4 4 3 3 3 2
9 9 9 7 7 8 6 6 7 5 4 5 5 4 4 3 3 5 5 4 3 3 4 3 3 3 5 5 5 10 5 4 4 4 4 4 4 4 4 4 4 4
6 5 7 6 6 7 6 6 6 6 4 4 3 4 3 3 2 1 2 3 2 2 3 2 2 6 4 4 3 3 6 4 4 4 4 4 5 5 5 5 5 4
9 8 8 7 8 8 6 5 6 8 2 0 3 3 3 3 2 1 2 2 3 3 3 3 2 5 4 5 4 2 3 6 5 4 5 6 5 6 6 5 5 4
8 9 9 7 7 8 8 8 6 7 6 4 4 3 3 3 3 4 3 3 3 3 3 3 4 4 3 4 4 3 2 4 5 4 4 5 5 6 5 5 5 5
7 7 8 8 7 8 7 6 6 6 6 4 4 4 4 4 4 4 3 3 3 3 4 4 4 5 6 5 5 3 2 5 5 4 5 5 5 4 5 5 5 5
8 8 8 7 8 8 8 6 6 6 6 5 5 4 4 4 3 3 3 3 2 2 3 6 4 4 2 3 4 3 4 5 5 5 6 6 6 6 5 5 5 6
8 8 8 8 8 9 8 8 6 5 5 4 4 4 5 4 4 3 3 4 3 3 3 7 5 4 2 2 2 2 5 4 3 4 5 5 6 6 5 5 5 6
10 9 9 8 8 9 8 7 6 6 6 5 5 4 4 4 4 3 4 3 3 5 6 5 7 4 3 1 2 3 6 4 4 4 5 5 5 5 5 4 5 4
9 9 10 9 9 8 7 8 7 6 5 5 6 6 6 5 4 5 5 4 5 6 4 4 7 6 4 3 3 4 6 4 5 5 6 6 5 5 5 5 4 8
8 9 8 8 8 8 7 7 6 7 7 6 6 6 6 6 5 6 7 5 5 6 6 6 7 6 4 3 4 4 6 6 3 5 5 5 4 4 4 4 4 5
Wind_Direction
174 175 171 173 164 161 161 154 151 154 153 152 154 155 160 155 160 168 158 155 148 143 140 136 142 148 148 142 157 167 118 113 116 120 128 154 128 157 173 195 208 224
183 180 174 169 151 147 147 149 148 152 148 153 153 157 159 157 163 164 155 148 149 141 138 140 144 147 160 140 127 125 116 120 121 124 128 130 131 152 170 181 193 197
185 180 175 166 153 146 140 145 153 154 155 157 149 161 156 161 162 160 154 153 146 137 140 140 137 139 133 122 127 118 115 121 118 122 117 109 107 120 122 173 166 182
182 179 178 168 156 154 152 158 161 161 155 153 165 162 161 161 163 156 152 154 146 148 148 150 150 145 134 125 128 115 112 114 106 113 115 115 121 121 130 137 139 174
183 178 179 170 160 158 160 168 170 168 165 163 167 169 166 162 165 160 158 156 152 153 154 155 157 147 141 139 131 122 121 116 122 130 113 113 107 116 126 138 145 147
183 181 180 173 165 165 165 168 166 176 168 167 167 168 162 164 166 162 162 158 156 152 154 155 157 159 157 141 145 137 144 134 126 144 132 128 127 140 143 135 133 139
182 186 184 175 170 170 171 174 177 184 173 169 162 168 162 168 168 166 165 162 156 159 155 154 153 161 159 155 150 146 136 131 148 149 139 123 122 128 132 135 126 126
175 181 182 173 168 169 172 170 172 177 168 167 171 169 174 172 174 171 168 168 162 159 156 151 155 154 163 161 151 142 138 149 149 151 126 119 122 107 109 116 125 122
177 175 177 170 167 171 173 172 169 169 168 172 174 171 180 181 178 176 175 171 165 160 158 155 152 149 153 152 143 148 144 141 142 132 132 131 125 115 106 107 119 122
183 179 175 169 169 172 172 169 167 167 172 174 174 171 177 181 174 181 177 176 168 164 159 160 152 150 150 150 148 139 140 138 133 132 136 131 123 122 112 113 105 119
183 172 169 168 173 173 171 170 167 168 168 177 171 174 172 169 172 179 176 178 173 171 164 162 158 157 151 146 138 143 130 134 138 129 127 120 110 101 111 111 124 118
125 103 130 189 180 178 172 169 167 164 165 174 174 173 168 174 172 174 181 173 179 174 164 163 160 156 155 153 146 143 137 125 128 137 132 127 126 125 114 114 127 131
85 110 132 91 45 51 156 171 169 163 166 169 172 167 166 174 171 171 177 181 187 170 165 162 155 158 154 155 153 153 146 140 138 139 137 123 132 128 127 126 136 136
155 159 158 141 129 116 42 116 154 164 164 158 164 163 171 177 168 174 172 191 170 171 157 151 152 160 157 163 161 154 149 149 146 150 148 144 141 139 133 143 137 146
120 123 104 106 110 116 128 119 104 113 127 138 152 151 164 168 170 168 169 169 160 178 160 154 166 160 165 171 165 152 152 151 147 157 164 163 171 164 161 172 176 147
156 147 139 131 132 135 121 110 105 108 117 116 114 131 142 150 153 155 157 163 166 159 132 150 167 163 48 21 359 344 167 163 165 172 182 177 186 186 181 201 198 190
164 163 142 133 128 124 114 114 102 77 65 92 98 89 104 120 147 161 161 151 166 176 166 164 170 105 73 35 10 347 327 186 192 182 184 187 191 200 204 199 214 220
132 104 116 108 115 125 141 127 106 77 34 67 86 102 99 105 116 117 125 134 152 167 159 166 156 88 116 112 54 343 339 302 213 198 195 205 207 213 214 211 211 213
134 129 135 152 152 141 125 137 141 133 180 134 102 102 109 105 95 144 187 153 199 181 170 179 157 87 122 130 123 82 333 311 241 216 217 210 218 221 231 231 221 220
113 126 128 129 147 145 145 148 141 134 136 136 138 140 118 130 165 182 178 166 169 165 174 178 98 93 93 88 93 86 46 300 265 258 248 241 233 232 233 239 239 245
99 110 116 129 134 129 140 155 153 135 135 143 148 140 147 165 178 164 150 153 162 182 174 111 74 123 123 132 133 150 162 256 243 245 240 236 237 238 245 251 254 257
74 88 90 100 114 122 118 120 131 130 126 131 126 119 130 154 147 141 134 145 152 164 163 102 76 35 99 122 135 161 220 236 232 239 246 242 239 235 233 238 238 242
53 59 70 84 100 104 100 96 92 90 104 123 126 135 151 153 138 138 166 155 160 160 168 104 85 40 36 95 127 228 247 246 233 242 240 242 243 244 239 240 240 240
51 57 62 64 66 84 95 98 101 103 91 97 107 111 119 119 118 101 67 71 73 52 9 99 82 56 341 347 248 224 285 279 249 254 248 246 243 232 244 234 230 151
45 48 53 57 62 64 73 80 81 80 77 76 94 99 89 79 66 108 117 102 83 81 350 41 90 94 55 28 322 314 300 264 261 252 250 251 255 245 229 240 233 171
44 46 46 49 52 53 47 51 61 70 68 77 73 81 86 93 97 98 94 83 88 89 76 67 77 68 57 16 16 350 343 311 286 273 272 266 261 274 275 267 249 248